Wetterdaten: Dienstag, 23.03.2010
Datum Zeit Temp. A. Feuchte A. Luftdruck Regen Wind Richtung Richtung Sonnenschein UV Solar Windben
23.03.2010 00:00 6,4 C 87 % 1018,3 hPa 0,0 mm 0,0 km/h (0 Bft) SO 135 0 min 0 UV-I 0 W/m 1,6 km/h (1 Bft)
23.03.2010 00:10 6,3 C 87 % 1018,3 hPa 0,0 mm 0,0 km/h (0 Bft) SO 135 0 min 0 UV-I 0 W/m 1,6 km/h (1 Bft)
23.03.2010 00:20 6,2 C 87 % 1018,4 hPa 0,0 mm 0,0 km/h (0 Bft) N 0 0 min 0 UV-I 0 W/m 0,0 km/h (0 Bft)
23.03.2010 00:30 6,1 C 87 % 1018,3 hPa 0,0 mm 0,0 km/h (0 Bft) N 0 0 min 0 UV-I 0 W/m 0,0 km/h (0 Bft)
23.03.2010 00:40 5,9 C 86 % 1018,3 hPa 0,0 mm 0,0 km/h (0 Bft) N 0 0 min 0 UV-I 0 W/m 0,0 km/h (0 Bft)
23.03.2010 00:50 5,7 C 87 % 1018,2 hPa 0,0 mm 0,0 km/h (0 Bft) SO 135 0 min 0 UV-I 0 W/m 1,6 km/h (1 Bft)
23.03.2010 01:00 5,6 C 87 % 1018,1 hPa 0,0 mm 0,0 km/h (0 Bft) SO 135 0 min 0 UV-I 0 W/m 1,6 km/h (1 Bft)
23.03.2010 01:10 5,4 C 87 % 1018,2 hPa 0,0 mm 0,0 km/h (0 Bft) SO 135 0 min 0 UV-I 0 W/m 1,6 km/h (1 Bft)
23.03.2010 01:20 5,3 C 87 % 1018,2 hPa 0,0 mm 0,0 km/h (0 Bft) SO 135 0 min 0 UV-I 0 W/m 1,6 km/h (1 Bft)
23.03.2010 01:30 5,2 C 88 % 1018,3 hPa 0,0 mm 0,0 km/h (0 Bft) SO 135 0 min 0 UV-I 0 W/m 1,6 km/h (1 Bft)
23.03.2010 01:40 5,2 C 88 % 1018,2 hPa 0,0 mm 0,0 km/h (0 Bft) SO 135 0 min 0 UV-I 0 W/m 1,6 km/h (1 Bft)
23.03.2010 01:50 5,3 C 89 % 1018,2 hPa 0,0 mm 0,0 km/h (0 Bft) SO 135 0 min 0 UV-I 0 W/m 1,6 km/h (1 Bft)
23.03.2010 02:00 5,3 C 89 % 1018,1 hPa 0,0 mm 0,0 km/h (0 Bft) SO 135 0 min 0 UV-I 0 W/m 3,2 km/h (1 Bft)
23.03.2010 02:10 5,4 C 90 % 1018,1 hPa 0,0 mm 0,0 km/h (0 Bft) SO 135 0 min 0 UV-I 0 W/m 3,2 km/h (1 Bft)
23.03.2010 02:20 5,6 C 90 % 1018,2 hPa 0,0 mm 0,0 km/h (0 Bft) SO 135 0 min 0 UV-I 0 W/m 1,6 km/h (1 Bft)
23.03.2010 02:30 5,7 C 90 % 1018,1 hPa 0,0 mm 0,0 km/h (0 Bft) SO 135 0 min 0 UV-I 0 W/m 4,8 km/h (1 Bft)
23.03.2010 02:40 5,8 C 91 % 1018,0 hPa 0,0 mm 0,0 km/h (0 Bft) SW 225 0 min 0 UV-I 0 W/m 6,4 km/h (2 Bft)
23.03.2010 02:50 6,2 C 91 % 1017,9 hPa 0,0 mm 1,6 km/h (1 Bft) SW 225 0 min 0 UV-I 0 W/m 6,4 km/h (2 Bft)
23.03.2010 03:00 6,4 C 91 % 1017,8 hPa 0,0 mm 0,0 km/h (0 Bft) S-SW 202 0 min 0 UV-I 0 W/m 4,8 km/h (1 Bft)
23.03.2010 03:10 6,7 C 90 % 1017,3 hPa 0,0 mm 0,0 km/h (0 Bft) S-SW 202 0 min 0 UV-I 0 W/m 4,8 km/h (1 Bft)
23.03.2010 03:20 6,9 C 89 % 1017,7 hPa 0,0 mm 0,0 km/h (0 Bft) SW 225 0 min 0 UV-I 0 W/m 6,4 km/h (2 Bft)
23.03.2010 03:30 7,1 C 89 % 1017,6 hPa 0,0 mm 1,6 km/h (1 Bft) SW 225 0 min 0 UV-I 0 W/m 4,8 km/h (1 Bft)
23.03.2010 03:40 7,2 C 88 % 1017,5 hPa 0,0 mm 1,6 km/h (1 Bft) S-SW 202 0 min 0 UV-I 0 W/m 6,4 km/h (2 Bft)
23.03.2010 03:50 7,3 C 87 % 1017,5 hPa 0,0 mm 1,6 km/h (1 Bft) S-SW 202 0 min 0 UV-I 0 W/m 6,4 km/h (2 Bft)
23.03.2010 04:00 7,3 C 86 % 1017,5 hPa 0,0 mm 0,0 km/h (0 Bft) SW 225 0 min 0 UV-I 0 W/m 6,4 km/h (2 Bft)
23.03.2010 04:10 7,3 C 85 % 1017,5 hPa 0,0 mm 1,6 km/h (1 Bft) SW 225 0 min 0 UV-I 0 W/m 4,8 km/h (1 Bft)
23.03.2010 04:20 7,3 C 85 % 1017,4 hPa 0,0 mm 0,0 km/h (0 Bft) S-SW 202 0 min 0 UV-I 0 W/m 3,2 km/h (1 Bft)
23.03.2010 04:30 7,3 C 84 % 1017,4 hPa 0,0 mm 0,0 km/h (0 Bft) S-SW 202 0 min 0 UV-I 0 W/m 1,6 km/h (1 Bft)
23.03.2010 04:40 7,2 C 84 % 1017,4 hPa 0,0 mm 0,0 km/h (0 Bft) S-SW 202 0 min 0 UV-I 0 W/m 3,2 km/h (1 Bft)
23.03.2010 04:50 7,2 C 84 % 1017,5 hPa 0,0 mm 0,0 km/h (0 Bft) SW 225 0 min 0 UV-I 0 W/m 6,4 km/h (2 Bft)
23.03.2010 05:00 7,1 C 84 % 1017,5 hPa 0,0 mm 0,0 km/h (0 Bft) SW 225 0 min 0 UV-I 0 W/m 4,8 km/h (1 Bft)
23.03.2010 05:10 7,1 C 84 % 1017,5 hPa 0,0 mm 0,0 km/h (0 Bft) SW 225 0 min 0 UV-I 0 W/m 3,2 km/h (1 Bft)
23.03.2010 05:20 7,2 C 83 % 1017,5 hPa 0,0 mm 0,0 km/h (0 Bft) SW 225 0 min 0 UV-I 0 W/m 3,2 km/h (1 Bft)
23.03.2010 05:30 7,2 C 83 % 1017,5 hPa 0,0 mm 0,0 km/h (0 Bft) SW 225 0 min 0 UV-I 0 W/m 4,8 km/h (1 Bft)
23.03.2010 05:40 7,2 C 83 % 1017,6 hPa 0,0 mm 0,0 km/h (0 Bft) SW 225 0 min 0 UV-I 0 W/m 4,8 km/h (1 Bft)
23.03.2010 05:50 7,2 C 82 % 1017,6 hPa 0,0 mm 0,0 km/h (0 Bft) SW 225 0 min 0 UV-I 0 W/m 3,2 km/h (1 Bft)
23.03.2010 06:00 7,3 C 82 % 1017,7 hPa 0,0 mm 0,0 km/h (0 Bft) SW 225 0 min 0 UV-I 0 W/m 4,8 km/h (1 Bft)
23.03.2010 06:10 7,3 C 82 % 1017,9 hPa 0,0 mm 0,0 km/h (0 Bft) SW 225 0 min 0 UV-I 0 W/m 4,8 km/h (1 Bft)
23.03.2010 06:20 7,4 C 82 % 1018,0 hPa 0,0 mm 0,0 km/h (0 Bft) W-SW 247 0 min 0 UV-I 0 W/m 4,8 km/h (1 Bft)
23.03.2010 06:30 7,4 C 82 % 1018,1 hPa 0,0 mm 1,6 km/h (1 Bft) W-SW 247 0 min 0 UV-I 0 W/m 6,4 km/h (2 Bft)
23.03.2010 06:40 7,6 C 82 % 1018,2 hPa 0,0 mm 3,2 km/h (1 Bft) W-SW 247 0 min 0 UV-I 0 W/m 8,0 km/h (2 Bft)
23.03.2010 06:50 7,7 C 81 % 1018,3 hPa 0,0 mm 1,6 km/h (1 Bft) W 270 0 min 0 UV-I 5 W/m 8,0 km/h (2 Bft)
23.03.2010 07:00 7,8 C 81 % 1017,1 hPa 0,0 mm 1,6 km/h (1 Bft) W 270 0 min 0 UV-I 11 W/m 8,0 km/h (2 Bft)
23.03.2010 07:10 8,0 C 81 % 1018,4 hPa 0,0 mm 1,6 km/h (1 Bft) W-SW 247 0 min 0 UV-I 19 W/m 8,0 km/h (2 Bft)
23.03.2010 07:20 8,1 C 81 % 1018,4 hPa 0,0 mm 4,8 km/h (1 Bft) W-SW 247 0 min 0 UV-I 18 W/m 16,1 km/h (3 Bft)
23.03.2010 07:30 8,2 C 81 % 1018,6 hPa 0,0 mm 3,2 km/h (1 Bft) W-SW 247 0 min 0 UV-I 18 W/m 11,3 km/h (2 Bft)
23.03.2010 07:40 8,3 C 81 % 1018,6 hPa 0,0 mm 3,2 km/h (1 Bft) W-SW 247 0 min 0 UV-I 77 W/m 9,7 km/h (2 Bft)
23.03.2010 07:50 8,3 C 81 % 1018,6 hPa 0,0 mm 3,2 km/h (1 Bft) W 270 0 min 0 UV-I 76 W/m 11,3 km/h (2 Bft)
23.03.2010 08:00 8,5 C 81 % 1018,7 hPa 0,0 mm 4,2 km/h (1 Bft) W-SW 237 0 min 0 UV-I 27 W/m 8,0 km/h (2 Bft)
23.03.2010 08:10 8,5 C 81 % 1018,7 hPa 0,0 mm 3,2 km/h (1 Bft) W 270 0 min 0 UV-I 39 W/m 9,7 km/h (2 Bft)
23.03.2010 08:20 8,6 C 81 % 1019,0 hPa 0,0 mm 6,4 km/h (2 Bft) W 270 0 min 0 UV-I 35 W/m 17,7 km/h (3 Bft)
23.03.2010 08:30 8,6 C 82 % 1019,0 hPa 0,0 mm 4,8 km/h (1 Bft) W 270 0 min 0 UV-I 53 W/m 16,1 km/h (3 Bft)
23.03.2010 08:40 8,6 C 82 % 1019,2 hPa 0,0 mm 3,2 km/h (1 Bft) W 270 0 min 0 UV-I 67 W/m 9,7 km/h (2 Bft)
23.03.2010 08:50 8,7 C 82 % 1019,3 hPa 0,0 mm 4,8 km/h (1 Bft) W-SW 247 0 min 1 UV-I 102 W/m 11,3 km/h (2 Bft)
23.03.2010 09:00 8,7 C 82 % 1019,4 hPa 0,0 mm 3,2 km/h (1 Bft) W-SW 247 0 min 1 UV-I 113 W/m 14,5 km/h (3 Bft)
23.03.2010 09:10 8,8 C 82 % 1019,6 hPa 0,0 mm 4,8 km/h (1 Bft) W-SW 247 0 min 1 UV-I 86 W/m 17,7 km/h (3 Bft)
23.03.2010 09:20 8,8 C 82 % 1017,1 hPa 0,0 mm 4,8 km/h (1 Bft) W 270 0 min 0 UV-I 44 W/m 16,1 km/h (3 Bft)
23.03.2010 09:30 8,8 C 83 % 1018,0 hPa 0,0 mm 4,8 km/h (1 Bft) W 270 0 min 1 UV-I 120 W/m 14,5 km/h (3 Bft)
23.03.2010 09:40 8,8 C 83 % 1018,0 hPa 0,0 mm 4,8 km/h (1 Bft) W 270 0 min 1 UV-I 128 W/m 11,3 km/h (2 Bft)
23.03.2010 09:50 8,8 C 84 % 1019,4 hPa 0,0 mm 1,6 km/h (1 Bft) W-SW 247 0 min 1 UV-I 91 W/m 9,7 km/h (2 Bft)
23.03.2010 10:00 8,8 C 84 % 1019,9 hPa 0,0 mm 3,2 km/h (1 Bft) W 270 0 min 1 UV-I 86 W/m 8,0 km/h (2 Bft)
23.03.2010 10:10 8,8 C 84 % 1020,0 hPa 0,0 mm 3,2 km/h (1 Bft) W 270 0 min 1 UV-I 76 W/m 9,7 km/h (2 Bft)
23.03.2010 10:20 8,9 C 84 % 1020,0 hPa 0,0 mm 3,2 km/h (1 Bft) W 270 0 min 1 UV-I 98 W/m 9,7 km/h (2 Bft)
23.03.2010 10:30 8,9 C 84 % 1020,0 hPa 0,0 mm 3,2 km/h (1 Bft) W 270 0 min 1 UV-I 167 W/m 8,0 km/h (2 Bft)
23.03.2010 10:40 9,0 C 83 % 1019,9 hPa 0,0 mm 1,6 km/h (1 Bft) W 270 0 min 2 UV-I 218 W/m 8,0 km/h (2 Bft)
23.03.2010 10:50 9,2 C 83 % 1019,9 hPa 0,0 mm 1,6 km/h (1 Bft) W-SW 247 10 min 2 UV-I 348 W/m 6,4 km/h (2 Bft)
23.03.2010 11:00 9,6 C 82 % 1020,0 hPa 0,0 mm 3,2 km/h (1 Bft) W-SW 247 10 min 2 UV-I 422 W/m 9,7 km/h (2 Bft)
23.03.2010 11:10 9,6 C 82 % 1019,9 hPa 0,0 mm 3,2 km/h (1 Bft) W 270 10 min 2 UV-I 367 W/m 9,7 km/h (2 Bft)
23.03.2010 11:20 9,8 C 82 % 1020,0 hPa 0,0 mm 3,2 km/h (1 Bft) W 270 0 min 2 UV-I 229 W/m 11,3 km/h (2 Bft)
23.03.2010 11:30 9,8 C 82 % 1020,0 hPa 0,0 mm 4,8 km/h (1 Bft) W 270 10 min 3 UV-I 691 W/m 9,7 km/h (2 Bft)
23.03.2010 11:40 10,3 C 79 % 1020,0 hPa 0,0 mm 4,8 km/h (1 Bft) W 270 10 min 3 UV-I 719 W/m 14,5 km/h (3 Bft)
23.03.2010 11:50 10,8 C 74 % 1020,0 hPa 0,0 mm 6,4 km/h (2 Bft) W 270 10 min 3 UV-I 742 W/m 16,1 km/h (3 Bft)
23.03.2010 12:00 11,1 C 74 % 1019,9 hPa 0,0 mm 6,4 km/h (2 Bft) W 270 10 min 3 UV-I 881 W/m 19,3 km/h (3 Bft)
23.03.2010 12:10 11,6 C 70 % 1020,0 hPa 0,0 mm 6,4 km/h (2 Bft) W 270 10 min 4 UV-I 893 W/m 16,1 km/h (3 Bft)
23.03.2010 12:20 11,7 C 69 % 1020,0 hPa 0,0 mm 6,4 km/h (2 Bft) SW 225 10 min 4 UV-I 853 W/m 14,5 km/h (3 Bft)
23.03.2010 12:30 11,8 C 68 % 1020,0 hPa 0,0 mm 4,8 km/h (1 Bft) W 270 10 min 4 UV-I 844 W/m 14,5 km/h (3 Bft)
23.03.2010 12:40 11,3 C 69 % 1020,0 hPa 0,0 mm 3,2 km/h (1 Bft) W-NW 292 0 min 2 UV-I 218 W/m 9,7 km/h (2 Bft)
23.03.2010 12:50 11,3 C 68 % 1019,9 hPa 0,0 mm 3,2 km/h (1 Bft) W-NW 292 10 min 3 UV-I 540 W/m 9,7 km/h (2 Bft)
23.03.2010 13:00 11,7 C 66 % 1019,8 hPa 0,0 mm 1,6 km/h (1 Bft) W-NW 292 10 min 4 UV-I 824 W/m 8,0 km/h (2 Bft)
23.03.2010 13:10 12,6 C 61 % 1019,8 hPa 0,0 mm 3,2 km/h (1 Bft) W-NW 292 10 min 4 UV-I 807 W/m 11,3 km/h (2 Bft)
23.03.2010 13:20 12,6 C 64 % 1019,7 hPa 0,0 mm 3,2 km/h (1 Bft) W-NW 292 10 min 3 UV-I 759 W/m 11,3 km/h (2 Bft)
23.03.2010 13:30 12,7 C 63 % 1019,5 hPa 0,0 mm 1,6 km/h (1 Bft) N-NO 22 10 min 3 UV-I 737 W/m 6,4 km/h (2 Bft)
23.03.2010 13:40 12,9 C 61 % 1019,5 hPa 0,0 mm 1,6 km/h (1 Bft) N-NO 22 10 min 3 UV-I 765 W/m 9,7 km/h (2 Bft)
23.03.2010 13:50 13,0 C 60 % 1019,3 hPa 0,0 mm 3,2 km/h (1 Bft) W 270 10 min 3 UV-I 664 W/m 11,3 km/h (2 Bft)
23.03.2010 14:00 13,1 C 59 % 1019,2 hPa 0,0 mm 3,2 km/h (1 Bft) W-NW 292 10 min 3 UV-I 652 W/m 8,0 km/h (2 Bft)
23.03.2010 14:10 13,2 C 59 % 1019,2 hPa 0,0 mm 3,2 km/h (1 Bft) W-SW 247 10 min 3 UV-I 652 W/m 12,9 km/h (3 Bft)
23.03.2010 14:20 13,6 C 57 % 1019,0 hPa 0,0 mm 1,6 km/h (1 Bft) S-SW 202 10 min 3 UV-I 642 W/m 8,0 km/h (2 Bft)
23.03.2010 14:30 13,7 C 55 % 1019,1 hPa 0,0 mm 3,2 km/h (1 Bft) W 270 10 min 3 UV-I 599 W/m 11,3 km/h (2 Bft)
23.03.2010 14:40 13,7 C 56 % 1019,0 hPa 0,0 mm 3,2 km/h (1 Bft) W 270 10 min 2 UV-I 577 W/m 11,3 km/h (2 Bft)
23.03.2010 14:50 13,6 C 57 % 1018,9 hPa 0,0 mm 1,6 km/h (1 Bft) NW 315 10 min 2 UV-I 564 W/m 9,7 km/h (2 Bft)
23.03.2010 15:00 13,7 C 56 % 1018,8 hPa 0,0 mm 1,6 km/h (1 Bft) N-NO 22 10 min 2 UV-I 504 W/m 9,7 km/h (2 Bft)
23.03.2010 15:10 13,6 C 56 % 1018,7 hPa 0,0 mm 3,2 km/h (1 Bft) W 270 10 min 2 UV-I 510 W/m 9,7 km/h (2 Bft)
23.03.2010 15:20 14,3 C 53 % 1018,6 hPa 0,0 mm 1,6 km/h (1 Bft) S-SW 202 10 min 2 UV-I 519 W/m 8,0 km/h (2 Bft)
23.03.2010 15:30 14,0 C 54 % 1018,6 hPa 0,0 mm 1,6 km/h (1 Bft) SW 225 10 min 2 UV-I 506 W/m 8,0 km/h (2 Bft)
23.03.2010 15:40 13,9 C 53 % 1018,6 hPa 0,0 mm 3,2 km/h (1 Bft) W 270 10 min 2 UV-I 487 W/m 8,0 km/h (2 Bft)
23.03.2010 15:50 13,6 C 54 % 1018,7 hPa 0,0 mm 3,2 km/h (1 Bft) W 270 10 min 2 UV-I 438 W/m 8,0 km/h (2 Bft)
23.03.2010 16:00 13,9 C 54 % 1018,6 hPa 0,0 mm 1,1 km/h (1 Bft) W-SW 244 10 min 1 UV-I 382 W/m 3,2 km/h (1 Bft)
23.03.2010 16:10 13,8 C 55 % 1018,5 hPa 0,0 mm 1,6 km/h (1 Bft) W-SW 247 10 min 1 UV-I 387 W/m 4,8 km/h (1 Bft)
23.03.2010 16:20 13,7 C 54 % 1018,4 hPa 0,0 mm 1,6 km/h (1 Bft) N-NO 22 10 min 1 UV-I 348 W/m 6,4 km/h (2 Bft)
23.03.2010 16:30 13,8 C 56 % 1018,4 hPa 0,0 mm 0,0 km/h (0 Bft) W-NW 292 10 min 1 UV-I 339 W/m 4,8 km/h (1 Bft)
23.03.2010 16:40 13,8 C 55 % 1018,4 hPa 0,0 mm 1,6 km/h (1 Bft) W-SW 247 10 min 1 UV-I 332 W/m 6,4 km/h (2 Bft)
23.03.2010 16:50 13,5 C 55 % 1018,2 hPa 0,0 mm 1,6 km/h (1 Bft) SW 225 10 min 1 UV-I 271 W/m 4,8 km/h (1 Bft)
23.03.2010 17:00 13,6 C 55 % 1018,1 hPa 0,0 mm 0,0 km/h (0 Bft) S-SW 202 10 min 1 UV-I 246 W/m 4,8 km/h (1 Bft)
23.03.2010 17:10 13,5 C 55 % 1017,9 hPa 0,0 mm 1,6 km/h (1 Bft) SO 135 10 min 1 UV-I 239 W/m 4,8 km/h (1 Bft)
23.03.2010 17:20 13,2 C 55 % 1017,8 hPa 0,0 mm 0,0 km/h (0 Bft) O-SO 112 10 min 1 UV-I 193 W/m 4,8 km/h (1 Bft)
23.03.2010 17:30 12,9 C 58 % 1017,9 hPa 0,0 mm 0,0 km/h (0 Bft) O 90 10 min 1 UV-I 153 W/m 3,2 km/h (1 Bft)
23.03.2010 17:40 12,8 C 56 % 1017,9 hPa 0,0 mm 0,0 km/h (0 Bft) O 90 10 min 0 UV-I 139 W/m 3,2 km/h (1 Bft)
23.03.2010 17:50 12,6 C 59 % 1017,9 hPa 0,0 mm 0,0 km/h (0 Bft) O 90 0 min 0 UV-I 70 W/m 1,6 km/h (1 Bft)
23.03.2010 18:00 12,3 C 62 % 1017,9 hPa 0,0 mm 0,0 km/h (0 Bft) O 90 10 min 0 UV-I 65 W/m 1,6 km/h (1 Bft)
23.03.2010 18:10 11,9 C 64 % 1017,9 hPa 0,0 mm 0,0 km/h (0 Bft) N 0 0 min 0 UV-I 39 W/m 0,0 km/h (0 Bft)
23.03.2010 18:20 11,5 C 64 % 1017,8 hPa 0,0 mm 0,0 km/h (0 Bft) N 0 0 min 0 UV-I 26 W/m 0,0 km/h (0 Bft)
23.03.2010 18:30 10,9 C 66 % 1017,9 hPa 0,0 mm 0,0 km/h (0 Bft) N 0 10 min 0 UV-I 21 W/m 0,0 km/h (0 Bft)
23.03.2010 18:40 10,7 C 66 % 1017,9 hPa 0,0 mm 0,0 km/h (0 Bft) N 0 0 min 0 UV-I 11 W/m 0,0 km/h (0 Bft)
23.03.2010 18:50 10,3 C 68 % 1017,8 hPa 0,0 mm 0,0 km/h (0 Bft) N 0 0 min 0 UV-I 0 W/m 0,0 km/h (0 Bft)
23.03.2010 19:00 9,8 C 70 % 1017,8 hPa 0,0 mm 0,0 km/h (0 Bft) N 0 0 min 0 UV-I 0 W/m 0,0 km/h (0 Bft)
23.03.2010 19:10 9,2 C 73 % 1017,8 hPa 0,0 mm 0,0 km/h (0 Bft) N 0 0 min 0 UV-I 0 W/m 0,0 km/h (0 Bft)
23.03.2010 19:20 8,9 C 74 % 1017,8 hPa 0,0 mm 0,0 km/h (0 Bft) N 0 0 min 0 UV-I 0 W/m 0,0 km/h (0 Bft)
23.03.2010 19:30 8,5 C 75 % 1017,8 hPa 0,0 mm 0,0 km/h (0 Bft) N 0 0 min 0 UV-I 0 W/m 0,0 km/h (0 Bft)
23.03.2010 19:40 8,3 C 76 % 1017,8 hPa 0,0 mm 0,0 km/h (0 Bft) N 0 0 min 0 UV-I 0 W/m 0,0 km/h (0 Bft)
23.03.2010 19:50 8,1 C 76 % 1017,8 hPa 0,0 mm 0,0 km/h (0 Bft) N 0 0 min 0 UV-I 0 W/m 0,0 km/h (0 Bft)
23.03.2010 20:00 7,7 C 77 % 1017,7 hPa 0,0 mm 0,0 km/h (0 Bft) O 90 0 min 0 UV-I 0 W/m 3,2 km/h (1 Bft)
23.03.2010 20:10 7,7 C 75 % 1017,7 hPa 0,0 mm 0,0 km/h (0 Bft) O 90 0 min 0 UV-I 0 W/m 3,2 km/h (1 Bft)
23.03.2010 20:20 7,8 C 75 % 1017,8 hPa 0,0 mm 0,0 km/h (0 Bft) O 90 0 min 0 UV-I 0 W/m 3,2 km/h (1 Bft)
23.03.2010 20:30 7,6 C 76 % 1017,8 hPa 0,0 mm 0,0 km/h (0 Bft) O 90 0 min 0 UV-I 0 W/m 1,6 km/h (1 Bft)
23.03.2010 20:40 7,3 C 77 % 1017,8 hPa 0,0 mm 0,0 km/h (0 Bft) O 90 0 min 0 UV-I 0 W/m 1,6 km/h (1 Bft)
23.03.2010 20:50 7,1 C 79 % 1017,8 hPa 0,0 mm 0,0 km/h (0 Bft) O 90 0 min 0 UV-I 0 W/m 3,2 km/h (1 Bft)
23.03.2010 21:00 6,9 C 79 % 1015,5 hPa 0,0 mm 1,6 km/h (1 Bft) O 90 0 min 0 UV-I 0 W/m 4,8 km/h (1 Bft)
23.03.2010 21:10 6,9 C 79 % 1015,1 hPa 0,0 mm 1,6 km/h (1 Bft) O 90 0 min 0 UV-I 0 W/m 4,8 km/h (1 Bft)
23.03.2010 21:20 6,9 C 79 % 1017,6 hPa 0,0 mm 1,6 km/h (1 Bft) O 90 0 min 0 UV-I 0 W/m 3,2 km/h (1 Bft)
23.03.2010 21:30 6,8 C 78 % 1016,7 hPa 0,0 mm 0,3 km/h (0 Bft) O 86 0 min 0 UV-I 0 W/m 3,2 km/h (1 Bft)
23.03.2010 21:40 6,8 C 78 % 1013,1 hPa 0,0 mm 0,3 km/h (0 Bft) O 86 0 min 0 UV-I 0 W/m 3,2 km/h (1 Bft)
23.03.2010 21:50 6,8 C 78 % 1017,0 hPa 0,0 mm 0,1 km/h (0 Bft) O 86 0 min 0 UV-I 0 W/m 1,6 km/h (1 Bft)
23.03.2010 22:00 6,7 C 78 % 1017,1 hPa 0,0 mm 0,0 km/h (0 Bft) O 86 0 min 0 UV-I 0 W/m 0,0 km/h (0 Bft)
23.03.2010 22:10 6,6 C 79 % 1017,0 hPa 0,0 mm 0,0 km/h (0 Bft) O 86 0 min 0 UV-I 0 W/m 0,0 km/h (0 Bft)
23.03.2010 22:20 6,3 C 79 % 1016,0 hPa 0,0 mm 0,0 km/h (0 Bft) O 86 0 min 0 UV-I 0 W/m 0,0 km/h (0 Bft)
23.03.2010 22:30 6,0 C 80 % 1017,2 hPa 0,0 mm 0,0 km/h (0 Bft) O 86 0 min 0 UV-I 0 W/m 0,0 km/h (0 Bft)
23.03.2010 22:40 5,8 C 81 % 1017,1 hPa 0,0 mm 0,0 km/h (0 Bft) O 86 0 min 0 UV-I 0 W/m 0,0 km/h (0 Bft)
23.03.2010 22:50 5,6 C 82 % 1016,7 hPa 0,0 mm 0,0 km/h (0 Bft) O 86 0 min 0 UV-I 0 W/m 0,0 km/h (0 Bft)
23.03.2010 23:00 5,5 C 83 % 1016,5 hPa 0,0 mm 0,0 km/h (0 Bft) O 86 0 min 0 UV-I 0 W/m 0,0 km/h (0 Bft)
23.03.2010 23:10 5,4 C 83 % 1016,9 hPa 0,0 mm 0,0 km/h (0 Bft) O 86 0 min 0 UV-I 0 W/m 0,0 km/h (0 Bft)
23.03.2010 23:20 5,2 C 84 % 1016,4 hPa 0,0 mm 0,2 km/h (0 Bft) O 86 0 min 0 UV-I 0 W/m 1,6 km/h (1 Bft)
23.03.2010 23:30 5,3 C 84 % 1016,7 hPa 0,0 mm 0,2 km/h (0 Bft) O 86 0 min 0 UV-I 0 W/m 3,2 km/h (1 Bft)
23.03.2010 23:40 5,4 C 83 % 1015,7 hPa 0,0 mm 0,0 km/h (0 Bft) O 90 0 min 0 UV-I 0 W/m 4,8 km/h (1 Bft)
23.03.2010 23:50 5,5 C 82 % 1014,3 hPa 0,0 mm 1,6 km/h (1 Bft) O 90 0 min 0 UV-I 0 W/m 4,8 km/h (1 Bft)
_ Min-Zeit 01:20 15:20 21:40 - 00:00 - - - - - 00:20
Minimum _ 5,2 C 53 % 1013,1 hPa - 0,0 km/h (0 Bft) - - - - - 0,0 km/h (0 Bft)
_ Max-Zeit 15:20 02:40 10:10 00:00 08:20 - - 10:50 12:10 12:10 12:00
Maximum _ 14,7 C 91 % 1020,0 hPa 0,0 mm 6,4 km/h
W (2 Bft)
- - 10 min 4 UV-I 893 W/m 19,3 km/h
W-SW (3 Bft)
Durchschnitt _ 8,9 C 76 % 1018,2 hPa #0,0 mm 1,5 km/h (1 Bft) W - #7:00 h 2 UV-I 333 W/m 6,0 km/h (2 Bft)